Weather History for Imperial, NE

Change the Weather History Date:

Wednesday, July 10, 2013

  Actual Average Record
Temperature  
Mean Temperature 78 °F 76 °F  
Max Temperature 89 °F 91 °F 106 °F (1954)
Min Temperature 66 °F 61 °F 40 °F (1905)
Degree Days  
Heating Degree Days 0 0  
Month to date heating degree days 0 0  
Since 1 June heating degree days 24 34  
Cooling Degree Days 13 11  
Month to date cooling degree days 108 105  
Year to date cooling degree days 407 333  
Since 1 June cooling degree days 339 289  
Growing Degree Days 28 (Base 50)    
Moisture  
Dew Point 62 °F    
Average Humidity 61    
Maximum Humidity 90    
Minimum Humidity 32    
Precipitation  
Precipitation 0.02 in 0.09 in 1.21 in (1970)
Sea Level Pressure  
Sea Level Pressure 30.06 in    
Wind  
Wind Speed 11 mph (ESE)    
Max Wind Speed 24 mph    
Max Gust Speed 31 mph    
Visibility 10 miles    
Events Rain , Thunderstorm    
T = Trace of Precipitation, MM = Missing Value Source: NWS Daily Summary

Daily Weather History Graph

Daily Weather History Graph

Search for Another Location

Airport:

Trip Planner

Search our weather history database for the weather conditions in past years. The results will help you decide how hot, cold, wet, or windy it might be!

Date:

Astronomy

Jul. 10, 2013 Rise Set
Actual Time 5:25 AM MDT 8:18 PM MDT
Civil Twilight 4:52 AM MDT 8:50 PM MDT
Nautical Twilight 4:11 AM MDT 9:31 PM MDT
Astronomical Twilight 3:24 AM MDT 10:18 PM MDT
Moon 7:48 AM MDT (7/10) 9:28 PM MDT (7/10)
Length of Visible Light 15h 57m
Length of Day
14h 52m
Waxing Crescent, 5% of the Moon is Illuminated
Jul 10
Waxing Crescent
Jul 15
First Quarter
Jul 22
Full
Jul 29
Last Quarter
Aug 6
New

Hourly Weather History & Observations

Time (MDT) Temp. Heat Index Dew Point Humidity Pressure Visibility Wind Dir Wind Speed Gust Speed Precip Events Conditions
12:25 AM 73.4 °F - 66.2 °F 78% 30.14 in 10.0 mi SSE 8.1 mph - 0.00 in Rain Light Rain
12:53 AM 73.0 °F - 68.0 °F 84% 30.04 in 10.0 mi SE 5.8 mph - 0.00 in   Partly Cloudy
1:53 AM 71.1 °F - 66.9 °F 87% 30.04 in 10.0 mi East 4.6 mph - 0.00 in   Mostly Cloudy
2:53 AM 70.0 °F - 66.0 °F 87% 30.05 in 10.0 mi East 6.9 mph - N/A   Scattered Clouds
3:53 AM 70.0 °F - 64.9 °F 84% 30.06 in 10.0 mi NE 9.2 mph - N/A   Scattered Clouds
4:26 AM 69.8 °F - 64.4 °F 83% 30.17 in 10.0 mi Variable 4.6 mph - N/A Thunderstorm Scattered Clouds
4:41 AM 69.8 °F - 64.4 °F 83% 30.17 in 10.0 mi NE 8.1 mph - N/A   Scattered Clouds
4:53 AM 69.1 °F - 64.9 °F 87% 30.06 in 10.0 mi Variable 5.8 mph - N/A   Scattered Clouds
5:53 AM 68.0 °F - 64.0 °F 87% 30.05 in 10.0 mi ESE 5.8 mph - N/A   Clear
6:53 AM 69.1 °F - 63.0 °F 81% 30.04 in 10.0 mi SE 8.1 mph - N/A   Clear
7:53 AM 69.1 °F - 63.0 °F 81% 30.11 in 10.0 mi NNE 9.2 mph - N/A   Mostly Cloudy
8:53 AM 68.0 °F - 64.0 °F 87% 30.14 in 10.0 mi Calm Calm - 0.01 in Rain Light Rain
9:06 AM 69.8 °F - 62.6 °F 78% 30.24 in 10.0 mi North 11.5 mph 24.2 mph 0.00 in Rain Light Rain
9:26 AM 69.8 °F - 64.4 °F 83% 30.23 in 10.0 mi NE 6.9 mph - 0.00 in Rain , Thunderstorm Light Rain
9:41 AM 69.8 °F - 64.4 °F 83% 30.21 in 10.0 mi NE 9.2 mph - 0.01 in Rain Light Rain
9:53 AM 71.1 °F - 64.9 °F 81% 30.10 in 10.0 mi NE 13.8 mph - 0.01 in   Scattered Clouds
10:53 AM 77.0 °F - 64.0 °F 64% 30.12 in 10.0 mi NE 10.4 mph - N/A   Clear
11:53 AM 81.0 °F 81.7 °F 61.0 °F 50% 30.08 in 10.0 mi East 12.7 mph 18.4 mph N/A   Clear
12:53 PM 86.0 °F 85.7 °F 60.1 °F 41% 30.03 in 10.0 mi SE 18.4 mph 23.0 mph N/A   Clear
1:53 PM 87.1 °F 86.5 °F 59.0 °F 39% 30.01 in 10.0 mi SE 21.9 mph 31.1 mph N/A   Clear
2:53 PM 86.0 °F 85.7 °F 60.1 °F 41% 30.01 in 10.0 mi SSE 20.7 mph 28.8 mph N/A   Clear
3:53 PM 88.0 °F 86.5 °F 55.9 °F 34% 29.97 in 10.0 mi SE 19.6 mph 26.5 mph N/A   Clear
4:53 PM 89.1 °F 87.3 °F 55.9 °F 32% 29.96 in 10.0 mi SE 17.3 mph 27.6 mph N/A   Clear
5:53 PM 87.1 °F 85.9 °F 57.0 °F 36% 29.96 in 10.0 mi SSE 17.3 mph 23.0 mph N/A   Clear
6:53 PM 86.0 °F 84.0 °F 53.1 °F 32% 29.94 in 10.0 mi SSE 16.1 mph 24.2 mph N/A   Clear
7:53 PM 81.0 °F 80.7 °F 55.0 °F 41% 29.97 in 10.0 mi SE 9.2 mph - N/A   Mostly Cloudy
8:53 PM 79.0 °F - 53.1 °F 40% 29.99 in 10.0 mi SE 8.1 mph - N/A   Partly Cloudy
9:53 PM 73.9 °F - 62.1 °F 66% 30.01 in 10.0 mi East 8.1 mph - N/A   Clear
10:53 PM 70.0 °F - 62.1 °F 76% 30.02 in 10.0 mi Calm Calm - N/A   Clear
11:53 PM 68.0 °F - 61.0 °F 78% 30.02 in 10.0 mi SE 5.8 mph - N/A   Clear